Regional Weather Roundup
Issued by NWS

Home | Current Version | Previous Version | Graphics & Text | Print | Product List | Glossary Off
Versions: 1 2 3 4 5 6 7 8 9 10 11 12 13 14 15 16 17 18 19 20 21 22 23 24 25 26 27 28 29 30 31 32 33 34 35 36 37 38 39 40 41 42 43 44 45 46 47 48 49 50

000
ASUS45 KTFX 300819
RWRMT
MONTANA REGIONAL WEATHER ROUNDUP
NATIONAL WEATHER SERVICE GREAT FALLS MT
200 AM MDT SUN AUG 30 2015

NOTE: "FAIR" INDICATES FEW OR NO CLOUDS BELOW 12000 FEET WITH NO
SIGNIFICANT WEATHER AND/OR OBSTRUCTIONS TO VISIBILITY.

MTZ001>007-043-300900-
WEST OF THE DIVIDE

CITY           SKY/WX    TMP DP  RH WIND       PRES   REMARKS
KALISPELL      CLOUDY    60  51  72 S8        29.86S
MISSOULA       CLOUDY    60  52  74 NW13      29.88R
BUTTE          LGT RAIN  58  48  69 E9        29.97S
MULLAN PASS    CLOUDY    48  40  73 NW5       29.97F
DEER LODGE       N/A     61  45  55 CALM      29.94F
EUREKA           N/A     59  45  58 S8          N/A
HAMILTON         N/A     61  50  67 E1        29.86F
LIBBY            N/A     54  46  76 NW3       29.83F
PLAINS           N/A     59  51  74 MISG      29.90R
RONAN            N/A     58  55  89 CALM      29.94
THOMPSON FALLS   N/A     58  55  89 CALM      29.94S
$$

MTZ008-052>055-300900-
SOUTHWEST MONTANA

CITY           SKY/WX    TMP DP  RH WIND       PRES   REMARKS
BOZEMAN        CLOUDY    68  47  46 NE7       29.86R
DILLON         CLOUDY    72  42  34 S17       29.90S
W YELLOWSTONE  CLOUDY    52  50  93 CALM      30.10F
THREE FORKS      N/A     69  51  52 W9        29.88R
TWIN BRIDGES     N/A     70  41  34 NE3       29.90R
$$

MTZ009-010-012-014-046-048-049-054-300900-
EAST SLOPES AND CENTRAL MONTANA

CITY           SKY/WX    TMP DP  RH WIND       PRES   REMARKS
CUT BANK       PTCLDY    63  45  51 W22G30    29.82S
GREAT FALLS    CLOUDY    64  50  60 CALM      29.82R HAZE
MALMSTROM AFB  MOCLDY    68  49  50 NW3       29.82R
HELENA         CLOUDY    66  48  52 CALM      29.85F HAZE
CONRAD           N/A     67  50  54 W12       29.86S
$$

MTZ011-013-016-021-045-047-050-051-300900-
NORTH CENTRAL MONTANA

CITY           SKY/WX    TMP DP  RH WIND       PRES   REMARKS
HAVRE          CLOUDY    65  53  65 MISG      29.73R
LEWISTOWN      CLOUDY    64  49  57 W8        29.84R
N BAR RANCH      N/A     66  46  48 N10       29.86S
CHINOOK          N/A     66  55  68 W7        29.71R
FORT BENTON      N/A     64  54  68 S5        29.80R
$$

MTZ017>020-022>027-061-062-300900-
NORTHEAST MONTANA

CITY           SKY/WX    TMP DP  RH WIND       PRES   REMARKS
GLASGOW        PTCLDY    67  46  47 E9        29.67F HAZE
JORDAN           N/A     71  43  36 CALM      29.70S
SIDNEY         CLOUDY    70  54  56 CALM      29.67F
WOLF POINT     CLOUDY    68  50  52 CALM      29.67R HAZE
MALTA            N/A     73  56  55 CALM      29.66R
PLENTYWOOD       N/A     73  52  46 SE6       29.68F
POPLAR           N/A     66  52  59 N6        29.66S
SCOBEY           N/A     72  46  39 NW5       29.72R
$$

MTZ028>42-056>058-300900-
SOUTHCENTRAL AND SOUTHEAST MONTANA

CITY           SKY/WX    TMP DP  RH WIND       PRES   REMARKS
BAKER          CLOUDY    71  47  42 SE7       29.77F
BILLINGS       CLOUDY    76  42  29 SW14      29.79F
LIVINGSTON     PTCLDY    79  41  25 SW38G47   29.84R
MILES CITY     CLOUDY    78  46  32 S10       29.68F
EKALAKA          N/A     81  38  21 SE13      29.80F
FORSYTH          N/A     73  41  31 CALM      29.68F
LAUREL           N/A     72  42  33 SW5       29.80S
ROUNDUP          N/A     70  42  36 CALM      29.73R
$$

REGIONAL REPORTS...DAKOTAS

CITY           SKY/WX    TMP DP  RH WIND       PRES   REMARKS
WILLISTON      MOCLDY    67  56  67 CALM      29.69F HAZE
MINOT          MOCLDY    75  60  59 CALM      29.70F
DICKINSON      MOCLDY    63  52  67 S8        29.76F
BEACH            N/A     68  48  49 SE9       29.76S
CROSBY           N/A     63  50  63 E3        29.69F HAZE
TIOGA            N/A     63  59  88 E5        29.75F FOG
BISMARCK       MOCLDY    67  63  87 E6        29.78F
GRAND FORKS    PTCLDY    67  66  97 S10       29.78S
FARGO            N/A     67  63  87 S12       29.83F
BUFFALO SD       N/A     67  51  56 S5        29.75F
RAPID CITY     PTCLDY    69  44  40 SE7       29.88F
$$

REGIONAL REPORTS...WYOMING/IDAHO/WASHINGTON

CITY           SKY/WX    TMP DP  RH WIND       PRES   REMARKS
GILLETTE       CLOUDY    71  35  26 S16       29.88F
SHERIDAN       CLOUDY    65  43  44 W5        29.82F
BUFFALO WY     CLOUDY    75  34  22 S3        29.91F
CODY           CLOUDY    75  43  31 W22G39    29.96R
YELLOWSTONE LA   N/A     51  49  92 CALM      30.23F
IDAHO FALLS    MOCLDY    61  56  83 CALM      29.90F
SALMON         CLOUDY    64  43  45 NE5       29.81S
BOISE          CLOUDY    73  47  39 S6        29.88R
SPOKANE        PTCLDY    59  44  57 S10       29.83S
$$

REGIONAL REPORTS...ALBERTA

CITY           SKY/WX    TMP DP  RH WIND       PRES   REMARKS
EDMONTON       CLEAR     50  46  87 CALM      29.47R
CALGARY        PTCLDY    54  37  54 S9        29.63R
LETHBRIDGE     CLOUDY    63  36  36 SW14      29.72F
MEDICINE HAT   MOCLDY    66  45  45 SW9       29.70S
WATERTON GATE    N/A     63  32  31 SW21G38     N/A
CARDSTON         N/A     59  36  41 S6          N/A
MILK RIVER       N/A     59  43  55 W5          N/A
$$

REGIONAL REPORTS...SASKATCHEWAN

CITY           SKY/WX    TMP DP  RH WIND       PRES   REMARKS
SWIFT CURRENT  PTCLDY    70  52  52 NW2       29.68S HAZE
REGINA         CLOUDY    72  52  49 SE10      29.68S SMOKE
SASKATOON      CLOUDY    70  57  64 S10G21    29.64F
CYPRESS HILLS    N/A     64  39  39 NW6         N/A
VAL MARIE        N/A     64  54  68 W3          N/A
ROCKGLEN         N/A     70  48  46 SE1         N/A
ASSINIBOIA       N/A     59  52  77 SW9         N/A
$$



USA.gov is the U.S. government's official web portal to all federal, state and local government web resources and services.